Tracking 17265 objects as of 3-September-2015
HD Live streaming from Space Station

Track Soyuz TMA-18M
and Space Station

YAOGAN 14

Track YAOGAN 14 now!
10-day predictions
YAOGAN 14 is classified as:


NORAD ID: 38257
Int'l Code: 2012-021A
Perigee: 480.5 km
Apogee: 484.2 km
Inclination: 97.4 °
Period: 94.1 minutes
Semi major axis: 6853 km
RCS: 5.8167 m2 (large)
Launch date: May 10, 2012
Source: People's Republic of China (PRC)

YAOGAN 14 (Remote Sensing Satellite 14) is an optical reconnaisance satellite.
Your satellite tracking list
Your tracking list is empty





NASA's NSSDC Master Catalog

Two Line Element Set (TLE):
1 38257U 12021A   15245.39709281  .00004632  00000-0  16117-3 0  9991
2 38257  97.3765  13.1120 0002707 303.1527 140.6572 15.30197441185081

Source of the keplerian elements: AFSPC

N2YO: 522